{"data":{"norad_id":67809,"intl_designator":"2026-032N","name":"STARLINK-36795","alt_names":[],"object_type":"PAYLOAD","status":"ACTIVE","operator":null,"country":"US","launch_date":"2026-02-15","launch_site_code":"AFWTR","launch_vehicle":null,"mission":null,"orbit_class":"UNKNOWN","rcs_meters":null,"size_class":null,"mass_kg":null,"dimensions":null,"purposes":["comms"],"wikipedia_slug":null,"has_3d_model":false,"image_url":null,"decayed_at":null,"tle_current":{"epoch":"2026-05-25T01:40:09.801696Z","epoch_age_seconds":68711,"freshness":"FRESH","line1":"1 67809U 26032N   26145.06955789  .00014816  00000+0  46019-3 0  9992","line2":"2 67809  97.2850 333.1255 0000953  88.6340 271.5012 15.33456522 16664","mean_motion":15.33456522,"eccentricity":9.53e-5,"inclination_deg":97.285,"raan_deg":333.1255,"arg_perigee_deg":88.634,"mean_anomaly_deg":271.5012,"bstar":0.00046019,"rev_number":1666,"period_min":93.905499069637,"perigee_km":464.85669387356,"apogee_km":466.16109278083,"semimajor_km":6843.6458933272,"source":"CELESTRAK","updated_at":"2026-05-25T13:38:21.694385Z"}}}